Ceres, California, United States (95307)
Lat: 37.59N, Lon: 120.96W
Wx Zone: CAZ019
Local Info
Past Weather Observations for Today

NOTE: This archive is for the closest National Weather Service station to Ceres. Information may differ from the station used for current weather conditions.

Click here for Long-term Archive

Time Weather Temperature Dewpoint Humidity Pressure Winds Precip Visibility
20:53
Clear
Fog And Mist
52°F / 11°C 48°F / 9°C 88% 30.18 in
(1022 mb)
Calm - 4SM
19:53
Clear
52°F / 11°C 48°F / 9°C 88% 30.18 in
(1022 mb)
Calm - 8SM
18:53
Clear
55°F / 13°C 52°F / 11°C 88% 30.18 in
(1022 mb)
Calm - 10SM
18:00
Partly Cloudy
55°F / 13°C 52°F / 11°C 88% 30.18 in
(1022 mb)
Calm - 10SM
17:53
Partly Cloudy
55°F / 13°C 52°F / 11°C 88% 30.18 in
(1022 mb)
Calm - 10SM
17:00
Partly Cloudy
57°F / 14°C 52°F / 11°C 82% 30.18 in
(1022 mb)
NNW 6.9 mph
(NNW 11 kph)
- 10SM
16:53
Mostly Cloudy
59°F / 15°C 54°F / 12°C 82% 30.18 in
(1022 mb)
NNW 6.9 mph
(NNW 11 kph)
- 10SM
15:53
Overcast
61°F / 16°C 54°F / 12°C 77% 30.18 in
(1022 mb)
NW 4.6 mph
(NW 7 kph)
- 10SM
14:53
Overcast
61°F / 16°C 54°F / 12°C 77% 30.18 in
(1022 mb)
NNW 8.1 mph
(NNW 13 kph)
- 10SM
13:53
Overcast
61°F / 16°C 54°F / 12°C 77% 30.18 in
(1022 mb)
NNW 10.4 mph
(NNW 17 kph)
- 10SM
12:53
Overcast
59°F / 15°C 54°F / 12°C 82% 30.21 in
(1023 mb)
NW 11.5 mph
(NW 19 kph)
- 10SM
11:53
Overcast
59°F / 15°C 55°F / 13°C 88% 30.24 in
(1024 mb)
NW 11.5 mph
(NW 19 kph)
- 10SM
10:53
Overcast
57°F / 14°C 54°F / 12°C 88% 30.27 in
(1025 mb)
NW 8.1 mph
(NW 13 kph)
- 10SM
09:53
Overcast
Fog And Mist
57°F / 14°C 54°F / 12°C 88% 30.27 in
(1025 mb)
NW 8.1 mph
(NW 13 kph)
- 5SM
08:53
Overcast
Fog And Mist
57°F / 14°C 55°F / 13°C 94% 30.27 in
(1025 mb)
NNW 10.4 mph
(NNW 17 kph)
- 2 1/2SM
08:39
Overcast
Fog And Mist
57°F / 14°C 55°F / 13°C 94% 30.27 in
(1025 mb)
NNW 9.2 mph
(NNW 15 kph)
- 2 1/2SM
08:20
Overcast
Fog And Mist
57°F / 14°C 55°F / 13°C 94% 30.27 in
(1025 mb)
NNW 11.5 mph
(NNW 19 kph)
- 2SM
07:53
Overcast
Fog And Mist
57°F / 14°C 55°F / 13°C 94% 30.24 in
(1024 mb)
NNW 6.9 mph
(NNW 11 kph)
- 2 1/2SM
07:26
Overcast
Fog And Mist
57°F / 14°C 55°F / 13°C 94% 30.24 in
(1024 mb)
NNW 6.9 mph
(NNW 11 kph)
- 2SM
06:53
Overcast
57°F / 14°C 55°F / 13°C 94% 30.24 in
(1024 mb)
NNW 10.4 mph
(NNW 17 kph)
- 7SM
05:53
Overcast
Fog And Mist
57°F / 14°C 55°F / 13°C 94% 30.24 in
(1024 mb)
NW 5.8 mph
(NW 9 kph)
- 4SM
05:51
Overcast
Fog And Mist
57°F / 14°C 55°F / 13°C 94% 30.24 in
(1024 mb)
NW 6.9 mph
(NW 11 kph)
- 4SM
05:33
Overcast
Fog And Mist
57°F / 14°C 55°F / 13°C 94% 30.24 in
(1024 mb)
NW 9.2 mph
(NW 15 kph)
- 4SM
04:53
Overcast
Fog And Mist
57°F / 14°C 55°F / 13°C 94% 30.24 in
(1024 mb)
NW 6.9 mph
(NW 11 kph)
- 3SM
04:46
Overcast
Fog And Mist
57°F / 14°C 55°F / 13°C 94% 30.24 in
(1024 mb)
NNW 6.9 mph
(NNW 11 kph)
- 4SM
03:53
Overcast
Fog And Mist
57°F / 14°C 55°F / 13°C 94% 30.24 in
(1024 mb)
NNW 8.1 mph
(NNW 13 kph)
- 3SM
03:33
Overcast
Fog And Mist
57°F / 14°C 55°F / 13°C 94% 30.24 in
(1024 mb)
NNW 9.2 mph
(NNW 15 kph)
- 2 1/2SM
03:09
Overcast
Fog And Mist
57°F / 14°C 55°F / 13°C 94% 30.24 in
(1024 mb)
NW 10.4 mph
(NW 17 kph)
- 3SM
02:53
Overcast
Fog And Mist
57°F / 14°C 55°F / 13°C 94% 30.24 in
(1024 mb)
NW 10.4 mph
(NW 17 kph)
- 2SM
02:18
Obscured
Fog
57°F / 14°C 55°F / 13°C 94% 30.24 in
(1024 mb)
NNW 10.4 mph
(NNW 17 kph)
- 1/2SM
02:05
Overcast
Fog And Mist
57°F / 14°C 55°F / 13°C 94% 30.24 in
(1024 mb)
NNW 11.5 mph
(NNW 19 kph)
- 1 3/4SM
01:53
Overcast
Fog And Mist
57°F / 14°C 55°F / 13°C 94% 30.24 in
(1024 mb)
NW 10.4 mph
(NW 17 kph)
- 3SM
01:41
Mostly Cloudy
Fog And Mist
57°F / 14°C 55°F / 13°C 94% 30.24 in
(1024 mb)
NW 12.7 mph
(NW 20 kph)
- 5SM
01:02
Partly Cloudy
Fog And Mist
57°F / 14°C 54°F / 12°C 88% 30.24 in
(1024 mb)
NW 11.5 mph
(NW 19 kph)
- 6SM
00:53
Clear
Fog And Mist
57°F / 14°C 54°F / 12°C 88% 30.24 in
(1024 mb)
NW 10.4 mph
(NW 17 kph)
- 6SM
Time Weather Temperature Dewpoint Humidity Pressure Winds Precip Visibility


Weather for websites

WeatherForYou.com, LLC is not responsible for any damages or problems caused by this service. Current weather conditions are obtained from the closest station including government and personal stations which may have varying degrees of accuracy. Weather forecasts are derived from the NOAA NDFD. Like all things, this site belongs to Jesus Christ... He just trusts me to maintain it. If you have any questions or comments email webmaster@weatherforyou.com

Copyright © 2014, WeatherForYou.com LLC. All rights reserved.